Regional Weather Roundup
Issued by NWS Upton, NY

Current Version | Previous Version | Text Only | Print | Product List | Glossary On
Versions: 1 2 3 4 5 6 7 8 9 10 11 12 13 14 15 16 17 18 19 20 21 22 23 24 25 26 27 28 29 30 31 32 33 34 35 36 37 38 39 40 41 42 43 44 45 46 47 48 49 50
000
ASUS41 KOKX 281505
RWROKX

REGIONAL WEATHER ROUNDUP
NATIONAL WEATHER SERVICE NEW YORK NY
1000 AM EST SUN DEC 28 2014

NOTE: "FAIR" INDICATES FEW OR NO CLOUDS BELOW 12,000 FEET WITH NO
SIGNIFICANT WEATHER AND/OR OBSTRUCTIONS TO VISIBILITY.

NYZ071-072-176-178-NJZ106-104-281600-
NEW YORK CITY METRO AREA


CITY           SKY/WX    TMP DP  RH WIND       PRES   REMARKS
CENTRAL PARK   LGT RAIN  46  40  79 VRB6      29.94R
LAGUARDIA APRT LGT RAIN  45  41  86 SW8       29.92R
KENNEDY INTL   CLOUDY    46  41  82 SW8       29.94R
NEWARK/LIBERTY LGT RAIN  44  42  93 SW8       29.94R
BRNX BOT. GARD   N/A     45  41  87 W13       29.91R
TETERBORO      LGT RAIN  44  41  89 SW7       29.91R
$$

NYZ177-179-078>081-281600-
LONG ISLAND NEW YORK

CITY           SKY/WX    TMP DP  RH WIND       PRES   REMARKS
FARMINGDALE    CLOUDY    45  42  89 SW12      29.92S
ISLIP          LGT RAIN  45  42  89 SW9       29.89S
SHIRLEY        LGT RAIN  45  42  89 SW6       29.91S
WESTHAMPTON    LGT RAIN  46  42  86 SW8       29.90F
MONTAUK POINT    N/A     49  43  80 SW5       29.90F
$$

NYZ052-065-067-281600-
HUDSON VALLEY

CITY           SKY/WX    TMP DP  RH WIND       PRES   REMARKS
WHITE PLAINS   LGT RAIN  44  42  93 W6        29.89R FOG
NEWBURGH       PTSUNNY   45  41  87 SW6       29.89S
MONTGOMERY     CLOUDY    45  42  89 S6        29.87F
POUGHKEEPSIE   CLOUDY    46  40  79 SW7       29.88R
ALBANY         CLOUDY    45  38  76 W8        29.88R
$$

NJZ001-105-106-008-010-013-015-019>022-104-281600-
NEW JERSEY

CITY           SKY/WX    TMP DP  RH WIND       PRES   REMARKS
NEWARK/LIBERTY LGT RAIN  44  42  93 SW8       29.94R
TETERBORO      LGT RAIN  44  41  89 SW7       29.91R
CALDWELL       CLOUDY    43  41  93 VRB5      29.93R FOG
MORRISTOWN     DRIZZLE   45  41  87 W7        29.93R
SOMERVILLE     CLOUDY    43  41  93 CALM      29.92R FOG
SUSSEX         CLOUDY    44  40  85 SW6       29.90R
ANDOVER        NOT AVBL
TRENTON        CLOUDY    47  40  76 W5        29.94R
MILLVILLE      LGT RAIN  49  42  77 SW3       29.96R
ATLANTIC CITY  CLOUDY    50  40  68 W8        29.96R
WRIGHTSTOWN    CLOUDY    45  43  93 SW7       29.92R
TOMS RIVER     CLOUDY    46  43  87 SW5       29.95F
BELMAR         CLOUDY    46  37  71 SW6       29.94R
$$

PAZ047>061-062-071-281600-
EASTERN PENNSYLVANIA

CITY           SKY/WX    TMP DP  RH WIND       PRES   REMARKS
PHILADELPHIA   CLOUDY    46  41  82 W7        29.97R
ALLENTOWN      CLOUDY    46  40  79 SW6       29.94R
SCRANTON       CLOUDY    46  38  73 SW7       29.91R
$$

CTZ002-004>006-009-010-012-RIZ004-006-007-MAZ004-011-015-281600-
SOUTHERN NEW ENGLAND
 IN CT

CITY           SKY/WX    TMP DP  RH WIND       PRES   REMARKS
BRADLEY INTL   CLOUDY    45  41  86 S9        29.85S
HARTFORD       CLOUDY    44  42  93 SE5       29.87R
DANBURY        CLOUDY    44  38  79 W5        29.90R
WTRBRY/OXFORD  MOSUNNY   43  37  81 W5        29.88R
BRIDGEPORT     CLOUDY    46  44  93 W7        29.89S
MERIDEN        CLOUDY    44  42  93 SE6       29.88R FOG
NEW HAVEN      CLOUDY    47  43  86 VRB3      29.89R
CHESTER        PTSUNNY   43  43 100 W6        29.87S FOG
GROTON         LGT RAIN  45  43  93 SW8       29.87F
WILLIMANTIC    LGT RAIN  45  42  89 W3        29.87S FOG

 IN RI

CITY           SKY/WX    TMP DP  RH WIND       PRES   REMARKS
PROVIDENCE     LGT RAIN  47  42  83 SW7       29.84F
BLOCK ISLAND   CLOUDY    48  43  81 SW9       29.87F
WESTERLY       LGT RAIN  45  43  93 SW7       29.87F

 IN MA

CITY           SKY/WX    TMP DP  RH WIND       PRES   REMARKS
BOSTON         CLOUDY    47  40  76 SW14      29.82S
WORCESTER      LGT RAIN  42  39  89 W16       29.81R
WESTFIELD      CLOUDY    44  40  85 CALM      29.85R
PROVINCETOWN   CLOUDY    46  45  93 SW15      29.84F
NANTUCKET      CLOUDY    50  45  83 SW15      29.88F
$$

ANZ330-335-338-340-345-350-353-355-281600-
COASTAL MARINE OBSERVATIONS


STATION/POSITION TIME  SKY/WX   TEMP    WIND        PRES    VSBY  WAVE
                                AIR SEA DIR/SP/G                  HT/PER
                 (UTC)          (F)     (DEG/KT/KT) (MB)    (MI)  (FT/S)
NY HARB ENTRANCE 1500            47 45  230/ 10/ 12 1014.2          3/ 5
4S FIRE IS       1500               47                N/A           4/13
20S FIRE ISLAND  1400            50 49              1013.5          4/14
23SW MTP         1500                                 N/A           5/ 6
HUDSON CANYON    1500            55 55  230/ 21/ 25 1013.1          6/ 6
EXECUTION ROCKS  1500            44 42  220/ 10/ 12   N/A
WESTERN LI SOUND 1500            44     210/  6/  8   N/A           0
CENTRAL LI SOUND 1400            45 44  220/  8/ 10   N/A           1/ 2
EASTERN LI SOUND NOT AVBL
ROBBINS REEF     1500            44                 1012.5
$$


>>>>>>>>>>>>>>>>>>>>>>>>>>>> KEY <<<<<<<<<<<<<<<<<<<<<<<<<<<
>                                                          <
>     SKY/WX - SKY CONDITION/PRESENT WEATHER               <
>     TMP    - TEMPERATURE IN FAHRENHEIT                   <
>     DP     - DEWPOINT IN FAHRENHEIT                      <
>     RH     - RELATIVE HUMIDITY IN PERCENT                <
>     WIND   - DIRECTION AND SPEED IN MPH                  <
>     PRES   - MEAN SEA LEVEL PRESSURE IN INCHES OF HG     <
>     WCI    - WIND CHILL INDEX                            <
>     VSB    - VISIBILITY IN MILES                         <
>     HX     - HEAT INDEX                                  <
>     TC     - TEMPERATURE IN CELSIUS                      <
>     VRB    - VARIABLE WIND DIRECTION                     <
>                                                          <
>>>>>>>>>>>>>>>>>>>>>>>>>>>> KEY <<<<<<<<<<<<<<<<<<<<<<<<<<<




USA.gov is the U.S. government's official web portal to all federal, state and local government web resources and services.